"Pseudo-MPEC" for P110BRy

Created 2020 May 26 3:07:11 UT using Find_Orb

Click here for an explanation of pseudo-MPECs

 
 Astrometry: 
     P110BRy  C2020 05 20)391S_)-g''GnP8f#Xf9TAstrometryG6W7#1WnE;%xTb,Aj3C^=F51
     P110BRy  C2020 05 20[8t,B/`redacted;DFclick=[#(8%w7tVjO?herevJ/cmG[)9U_UF51
     P110BRy  C2020 05 20;'e!Kes,hUyG,6AcJ(VuktB8UKQd0fora%lZexplanationqkSX3F51

Station data:
(F51) Pan-STARRS 1, Haleakala  (N20.707235 W156.255910)  US/Hawaii.
   Observers N. Primak, A. Schultz, S. Watters, J. Thiel, T. Goggia. Measurer
   PS1 Science Consortium. 1.8-m Ritchey-Chrétien + CCD.

Orbital elements:  P110BRy
   Perihelion 2020 Jul 9.199812 +/- 39 TT =  4:47:43 (JD 2459039.699812)
Epoch 2020 May 20.0 TT = JDT 2458989.5   Earth MOID: 0.0104   AutoNEOCP
M 319.15287713 +/- 20               (J2000 ecliptic)
n   0.81369074 +/- 0.384            Peri.   51.10184 +/- 58
a   1.13630904 +/- 0.357            Node   239.01091 +/- 28
e   0.1170343 +/- 0.252             Incl.    1.62302 +/- 3.1
P   1.21/442.42d           H 28.2   G  0.15   U 12.1  SR
q 1.00332188 +/- 0.23    Q 1.26929620 +/- 43.3
From 3 observations 2020 May 20 (39.6 min); mean residual 0".05
Residuals in arcseconds: 
200520 F51  .02+  .07-    200520 F51  .02-  .10+    200520 F51  .01+  .03-    

Ephemerides (geocentric):
Date (UTC) HH   RA              Dec         delta   r     elong  mag " sig PA
---- -- -- --  -------------   -----------  ------ ------ -----  --- ---- ---
2020 05 26 03  17 18 23.471   -14 53 20.58  .02253 1.0347 163.1 21.0  60d 165
2020 05 26 04  17 18 50.937   -14 49 26.17  .02247 1.0346 163.1 21.0  60d 165
2020 05 26 05  17 19 18.518   -14 45 30.45  .02242 1.0346 163.0 21.0  60d 165
2020 05 26 06  17 19 46.213   -14 41 33.39  .02236 1.0345 162.9 21.0  60d 165
2020 05 26 07  17 20 14.023   -14 37 35.01  .02231 1.0345 162.8 21.0  60d 165
2020 05 26 08  17 20 41.948   -14 33 35.28  .02225 1.0344 162.7 21.0  60d 165
2020 05 26 09  17 21 09.989   -14 29 34.21  .02220 1.0344 162.6 21.0  60d 165
2020 05 26 10  17 21 38.147   -14 25 31.78  .02214 1.0343 162.5 21.0  60d 165
2020 05 26 11  17 22 06.421   -14 21 27.99  .02209 1.0343 162.4 21.0  60d 165
2020 05 26 12  17 22 34.813   -14 17 22.84  .02203 1.0342 162.3 20.9  60d 165
2020 05 26 13  17 23 03.323   -14 13 16.31  .02198 1.0341 162.2 20.9  61d 165
2020 05 26 14  17 23 31.950   -14 09 08.40  .02193 1.0341 162.1 20.9  61d 165
2020 05 26 15  17 24 00.697   -14 04 59.10  .02187 1.0340 162.0 20.9  61d 165
2020 05 26 16  17 24 29.562   -14 00 48.40  .02182 1.0340 161.9 20.9  61d 165
2020 05 26 17  17 24 58.548   -13 56 36.31  .02177 1.0339 161.8 20.9  61d 165
2020 05 26 18  17 25 27.653   -13 52 22.80  .02171 1.0339 161.7 20.9  61d 165
2020 05 26 19  17 25 56.880   -13 48 07.87  .02166 1.0338 161.6 20.9  61d 165
2020 05 26 20  17 26 26.227   -13 43 51.52  .02161 1.0337 161.5 20.9  61d 165
2020 05 26 21  17 26 55.696   -13 39 33.74  .02155 1.0337 161.4 20.9  61d 165
2020 05 26 22  17 27 25.287   -13 35 14.52  .02150 1.0336 161.3 20.9  62d 165
2020 05 26 23  17 27 55.001   -13 30 53.86  .02145 1.0336 161.2 20.9  62d 165
2020 05 27 00  17 28 24.837   -13 26 31.74  .02140 1.0335 161.1 20.9  62d 165
2020 05 27 01  17 28 54.798   -13 22 08.17  .02134 1.0335 160.9 20.9  62d 165
2020 05 27 02  17 29 24.882   -13 17 43.13  .02129 1.0334 160.8 20.9  62d 165
2020 05 27 03  17 29 55.090   -13 13 16.61  .02124 1.0334 160.7 20.9  62d 165
2020 05 27 04  17 30 25.424   -13 08 48.62  .02119 1.0333 160.6 20.9  62d 165
2020 05 27 05  17 30 55.883   -13 04 19.14  .02114 1.0333 160.5 20.9  62d 165
2020 05 27 06  17 31 26.468   -12 59 48.17  .02109 1.0332 160.4 20.9  62d 165
2020 05 27 07  17 31 57.179   -12 55 15.69  .02103 1.0331 160.3 20.9  63d 165
2020 05 27 08  17 32 28.017   -12 50 41.71  .02098 1.0331 160.2 20.9  63d 165
2020 05 27 09  17 32 58.982   -12 46 06.22  .02093 1.0330 160.1 20.9  63d 165
2020 05 27 10  17 33 30.075   -12 41 29.20  .02088 1.0330 159.9 20.9  63d 165
2020 05 27 11  17 34 01.296   -12 36 50.66  .02083 1.0329 159.8 20.9  63d 165
2020 05 27 12  17 34 32.646   -12 32 10.58  .02078 1.0329 159.7 20.9  63d 165
2020 05 27 13  17 35 04.125   -12 27 28.96  .02073 1.0328 159.6 20.9  63d 165
2020 05 27 14  17 35 35.733   -12 22 45.79  .02068 1.0328 159.5 20.9  63d 165
2020 05 27 15  17 36 07.472   -12 18 01.07  .02063 1.0327 159.4 20.9  63d 165
2020 05 27 16  17 36 39.341   -12 13 14.79  .02058 1.0326 159.2 20.9  63d 165
2020 05 27 17  17 37 11.341   -12 08 26.94  .02053 1.0326 159.1 20.9  64d 165
2020 05 27 18  17 37 43.472   -12 03 37.51  .02048 1.0325 159.0 20.9  64d 165
2020 05 27 19  17 38 15.735   -11 58 46.51  .02043 1.0325 158.9 20.9  64d 165
2020 05 27 20  17 38 48.131   -11 53 53.91  .02038 1.0324 158.8 20.9  64d 165
2020 05 27 21  17 39 20.659   -11 48 59.73  .02033 1.0324 158.6 20.9  64d 165
2020 05 27 22  17 39 53.320   -11 44 03.94  .02028 1.0323 158.5 20.9  64d 165
2020 05 27 23  17 40 26.115   -11 39 06.55  .02023 1.0323 158.4 20.9  64d 165
2020 05 28 00  17 40 59.044   -11 34 07.55  .02019 1.0322 158.3 20.9  64d 165
2020 05 28 01  17 41 32.108   -11 29 06.92  .02014 1.0322 158.1 20.9  64d 165
2020 05 28 02  17 42 05.306   -11 24 04.68  .02009 1.0321 158.0 20.9  64d 165